Regional Weather Roundup
Issued by NWS Northern Indiana

Home | Current Version | Previous Version | Graphics & Text | Print | Product List | Glossary On
Versions: 1 2 3 4 5 6 7 8 9 10 11 12 13 14 15 16 17 18 19 20 21 22 23 24 25 26 27 28 29 30 31 32 33 34 35 36 37 38 39 40 41 42 43 44 45 46 47 48 49 50
000
ASUS43 KIWX 281210
RWRIWX

KIWX WEATHER ROUNDUP
NATIONAL WEATHER SERVICE NORTHERN INDIANA
800 AM EDT SAT MAR 28 2015

NOTE: "FAIR" INDICATES FEW OR NO CLOUDS BELOW 12,000 FEET WITH NO
SIGNIFICANT WEATHER AND/OR OBSTRUCTIONS TO VISIBILITY.

* THESE STATIONS ARE NOT UNDER NWS QUALITY CONTROL. THEY ALSO MAY NOT
  REPORT WEATHER SUCH AS PRECIPITATION OR FOG.

INZ001>027-281300-
NORTHERN INDIANA

CITY           SKY/WX    TMP DP  RH WIND       PRES   REMARKS
GARY*          CLEAR     25   7  46 NE7       30.28R WCI  17
VALPARAISO     CLEAR     14   6  70 NE3       30.27R
6HR MIN TEMP:  13; 6HR MAX TEMP:  21;

MICHIGAN CITY* FAIR      14   9  79 CALM      30.29R
LAPORTE*       CLEAR     15   7  70 N3        30.28R
6HR MIN TEMP:  14; 6HR MAX TEMP:  22;

KNOX*            N/A     14   0  52 N3        30.27R
SOUTH BEND     CLEAR     13   6  74 N5        30.27R WCI   5
6HR MIN TEMP:  12; 6HR MAX TEMP:  17;

ELKHART*       CLEAR     16   3  57 CALM      30.27
GOSHEN         CLEAR     14   8  77 NE3       30.25R
6HR MIN TEMP:  13; 6HR MAX TEMP:  19;

MONTICELLO*    CLEAR     18  11  74 N6        30.26R WCI   9
6HR MIN TEMP:  15; 6HR MAX TEMP:  18;

LOGANSPORT*    CLEAR     18  14  86 N6        30.27R WCI   9
ROCHESTER*     CLEAR     19  14  79 CALM      30.26R
WARSAW*        CLEAR     14  10  85 CALM      30.25R
ANGOLA*        CLEAR     16   9  73 CALM      30.24R
FORT WAYNE     CLEAR     17   9  70 NE5       30.26R WCI  10
6HR MIN TEMP:  16; 6HR MAX TEMP:  20;

HUNTINGTON*    CLEAR     17   8  69 E3        30.25R
6HR MIN TEMP:  16; 6HR MAX TEMP:  19;

PERU/GRISSOM   CLEAR     17  11  77 N5        30.23R WCI  10
6HR MIN TEMP:  17; 6HR MAX TEMP:  19;

MARION*        CLEAR     17  12  80 NE5       30.25R WCI  10
6HR MIN TEMP:  -9; 6HR MAX TEMP:  69;


$$
INZ028>050-281300-
CENTRAL INDIANA

CITY           SKY/WX    TMP DP  RH WIND       PRES   REMARKS
LAFAYETTE      CLEAR     17  11  77 NE6       30.27R WCI   9
6HR MIN TEMP:  15; 6HR MAX TEMP:  19;

KOKOMO*          N/A     18  12  79 N8        30.25R WCI   7
6HR MIN TEMP:  18; 6HR MAX TEMP:  19;

MUNCIE*        CLEAR     18  13  80 N6        30.22R WCI  10
6HR MIN TEMP:  18; 6HR MAX TEMP:  21;

INDIANAPOLIS   PTCLDY    18  12  77 N7        30.22R WCI   9
6HR MIN TEMP:  17; 6HR MAX TEMP:  21;


$$
MIZ043>046-050>051-056>058-064>065-071>073-077>080-281300-
SOUTHWEST LOWER MICHIGAN

CITY           SKY/WX    TMP DP  RH WIND       PRES   REMARKS
BATTLE CREEK   FAIR      13   5  70 N6        30.26R WCI   4
6HR MIN TEMP:  12; 6HR MAX TEMP:  18;

BENTON HARBOR  CLEAR     10   7  87 CALM      30.29R
6HR MIN TEMP:  10; 6HR MAX TEMP:  18;

COLDWATER*     CLEAR     13   7  75 CALM      30.24R
6HR MIN TEMP:  13; 6HR MAX TEMP:  19;

HILLSDALE*     CLEAR     12   7  77 N3        30.21R
HOLLAND        CLEAR     15   5  64 NE3       30.30R
6HR MIN TEMP:  14; 6HR MAX TEMP:  18;

GRAND RAPIDS   CLEAR     14   4  64 CALM      30.28R
6HR MIN TEMP:  12; 6HR MAX TEMP:  15;

KALAMAZOO      CLEAR     13   5  70 CALM      30.27R
6HR MIN TEMP:  12; 6HR MAX TEMP:  18;

STURGIS*       CLEAR     12   7  79 CALM      30.25R
THREE RIVERS*  FAIR      15  10  78 CALM      30.27R
6HR MIN TEMP:  14; 6HR MAX TEMP:  19;


$$
OHZ001>008-015>018-024>025-281300-
NORTHWEST OHIO

CITY           SKY/WX    TMP DP  RH WIND       PRES   REMARKS
WAUSEON*       FAIR      16   7  67 N6        30.25R WCI   7
DEFIANCE       CLEAR     16   8  71 N5        30.26R WCI   9
6HR MIN TEMP:  15; 6HR MAX TEMP:  21;

FINDLAY        MOCLDY    16   8  71 NW6       30.22R WCI   7
6HR MIN TEMP:  16; 6HR MAX TEMP:  21;

TOLEDO EXPRESS CLEAR     15   6  67 NW6       30.24R WCI   6
6HR MIN TEMP:  14; 6HR MAX TEMP:  19;

TOLEDO METCALF MOCLDY    19   5  54 N10       30.24R WCI   7
6HR MIN TEMP:  18; 6HR MAX TEMP:  20;

LIMA           CLEAR     18   8  65 N6        30.22R WCI  10
6HR MIN TEMP:  17; 6HR MAX TEMP:  22; 6HR PCP: TRACE;


$$
AND FOR LAKE MICHIGAN COASTAL AND OPEN LAKE BUOY OBSERVATIONS

STATION/POSITION TEMP    WIND        PRES    VSBY  WAVE
                 AIR SEA DIR/SP/G                  HT/PER
                 (F)     (DEG/KT/KT) (MB)    (MI)  (FT/S)
CALUMET HARBOR    25      10/  8/ 12 1024.0R
MICHIGAN CITY     18      60/  6/  7   N/A
BURNS HARBOR      20     110/  6/  7 1025.7S
SAINT JOSEPH      15      10/  3/  4 1026.4R

$$
&&



USA.gov is the U.S. government's official web portal to all federal, state and local government web resources and services.